Location: Clanezzo
(45.7500°N, 9.6000°E)
Time: 21:07:25
(UTC+00:00)

Cosmos 773 Rocket - Pass Details

Date: 04 October 2021
Orbit: 745 x 777 km, 74.1° (Epoch: 27 October)

Event Time Altitude Azimuth Distance (km) Brightness Sun altitude
Rises 17:56:35 0° 325° (NW) 3,257 7.9 -11.4°
Reaches altitude 10° 17:59:32 10° 309° (NW) 2,329 7.4 -11.9°
Maximum altitude 18:03:17 20° 264° (W) 1,740 6.9 -12.6°
Drops below altitude 10° 18:07:01 10° 218° (SW) 2,322 6.9 -13.2°
Sets 18:09:58 0° 202° (SSW) 3,245 7.4 -13.7°
